Regional Weather Roundup
Issued by NWS

Home | Current Version | Previous Version | Graphics & Text | Print | Product List | Glossary On
Versions: 1 2 3 4 5 6 7 8 9 10 11 12 13 14 15 16 17 18 19 20 21 22 23 24 25 26 27 28 29 30 31 32 33 34 35 36 37 38 39 40 41 42 43 44 45 46 47 48 49 50
958
ASUS43 KOAX 151910
RWRNE

WEATHER ROUNDUP FOR NEBRASKA
NATIONAL WEATHER SERVICE OMAHA NE
100 PM CST FRI DEC 15 2017

NOTES: SATELLITE DATA IS BEING USED TO AUGMENT CLOUD COVER ABOVE
       12000 FEET.
       "FAIR" INDICATES FEW OR NO CLOUDS BELOW 12,000 FEET WITH NO
       SIGNIFICANT WEATHER AND/OR OBSTRUCTIONS TO VISIBILITY.


NEZ001>004-019>022-054>056-152000-
NEBRASKA PANHANDLE

CITY           SKY/WX    TMP DP  RH WIND       PRES   REMARKS
SCOTTSBLUFF    CLOUDY    54  14  20 W20G26    29.89F
ALLIANCE       CLOUDY    53  13  20 W17       29.85F
CHADRON        CLOUDY    53  19  26 W12       29.83F
GORDON         FAIR      47  19  31 W17G24    29.80F
KIMBALL        SUNNY     55  13  19 W26G32    29.93F
SIDNEY         SUNNY     56  11  16 W18G28    29.92F
$$

NEZ057>060-069>072-079>082-152000-
SOUTHWEST NEBRASKA

CITY           SKY/WX    TMP DP  RH WIND       PRES   REMARKS
NORTH PLATTE   SUNNY     47  20  34 W13       29.90F
IMPERIAL       SUNNY     55  13  18 NW15G22   29.93F
LEXINGTON      SUNNY     47  21  35 W10G16    29.92F
MCCOOK         SUNNY     50  18  28 W13       29.95F
OGALLALA       SUNNY     49  21  33 SW7       29.90F
$$

NEZ005>010-023>029-035>040-094-152000-
NORTH CENTRAL NEBRASKA

CITY           SKY/WX    TMP DP  RH WIND       PRES   REMARKS
VALENTINE      SUNNY     46  29  51 W15       29.80F
AINSWORTH      SUNNY     41  31  67 W13       29.82F
BROKEN BOW     CLOUDY    43  29  57 SW8       29.86F
O`NEILL        CLOUDY    40  29  65 SW8       29.83F WCI  35
ORD            SUNNY     45  29  53 SW12      29.84F
THEDFORD       SUNNY     52  23  31 W16       29.84F
$$

NEZ041-046>049-061>064-073>077-083>087-152000-
SOUTH CENTRAL NEBRASKA

CITY           SKY/WX    TMP DP  RH WIND       PRES   REMARKS
GRAND ISLAND   SUNNY     41  29  62 SW17      29.91F
AURORA         SUNNY     41  31  67 SW14      29.92F
HASTINGS       SUNNY     43  28  55 SW10G25   29.95F
HEBRON         SUNNY     44  30  57 SW13G21   29.99F
HOLDREGE       SUNNY     46  23  41 SW10      29.93F
KEARNEY        SUNNY     44  23  43 SW14      29.93F
YORK           SUNNY     41  32  70 SW17      29.93F
$$

NEZ011>018-030>034-042>045-152000-
NORTHEAST NEBRASKA

CITY           SKY/WX    TMP DP  RH WIND       PRES   REMARKS
NORFOLK        SUNNY     44  27  51 SW10      29.84F
ALBION         SUNNY     40  30  68 SW6       29.87F
BLAIR          SUNNY     44  27  51 SW17G28   29.91F
COLUMBUS       SUNNY     42  27  55 SW15      29.90F
FREMONT        SUNNY     46  25  44 SW12G18   29.92F
TEKAMAH        MOSUNNY   45  24  43 SW20G30   29.89F
WAYNE          CLOUDY    40  25  53 SW16      29.85F WCI  32
$$

NEZ050>053-065>068-078-088>093-152000-
SOUTHEAST NEBRASKA

CITY           SKY/WX    TMP DP  RH WIND       PRES   REMARKS
LINCOLN        SUNNY     46  26  45 SW18G29   29.96F
OMAHA EPPLEY   MOSUNNY   45  25  45 SW16G22   29.94F
BEATRICE       SUNNY     45  28  52 SW17      29.99F
FALLS CITY     SUNNY     46  22  38 SW18G28   30.03F
NEBRASKA CITY  MOSUNNY   46  26  46 W21G29    29.98F
PLATTSMOUTH    MOSUNNY   45  27  49 SW18G28   29.94F
$$

NEZ044-045-051>053-067-152000-
OMAHA AREA

CITY           SKY/WX    TMP DP  RH WIND       PRES   REMARKS
OMAHA EPPLEY   MOSUNNY   45  25  45 SW16G22   29.94F
BLAIR          SUNNY     44  27  51 SW17G28   29.91F
FREMONT        SUNNY     46  25  44 SW12G18   29.92F
MILLARD        SUNNY     46  28  49 SW12G20   29.95F
OFFUTT AFB     CLOUDY    46  24  42 SW17G24   29.94F
PLATTSMOUTH    MOSUNNY   45  27  49 SW18G28   29.94F
WAHOO          FAIR      46  25  44 SW20      29.93F
$$




USA.gov is the U.S. government's official web portal to all federal, state and local government web resources and services.